Weather in Ankavandra

Madagascar     18°39′29″S   45°16′02″E
temp.,
°C
wind,
m/s
gust,
m/s
humid.,
%
clouds,
%
prec.,
mm/h
press.,
hPa
HPBL,
m
8 march, mon
mon800:00+23sse11940 0.2 101023
03:00+22e00950 0.2 100823
06:00+21ne01962 0.0 100923
09:00+27wnw11783 0.0 1010478
12:00+31w22590 0.0 10091099
15:00+32nw12442 0.1 10071748
18:00+27wsw23711 0.0 100860
21:00+24se11901 0.3 101033
9 march, tue
tue900:00+23wsw00936 0.4 101123
03:00+22ne00955 0.4 101023
06:00+22nne01950 0.1 101223
09:00+27w10760 0.2 1013459
12:00+31wnw22562 0.2 10121325
15:00+32wnw344716 0.4 10101863
18:00+27sw22737 0.1 101040
21:00+24s12904 0.3 101356
10 march, wed
wed1000:00+23nnw01931 0.3 101323
03:00+22ne01940 0.4 101223
06:00+22ese01940 0.0 101323
09:00+26ssw11760 0.0 1013531
12:00+31wsw21593 0.1 10121169
15:00+32nw125324 0.2 10101585
18:00+28sw237387 0.2 101076
21:00+24s129154 2.2 101232
11 march, thu
thu1100:00+23ssw11927 3.7 101243
03:00+22s019624 4.9 101130
06:00+22sse119527 0.1 101230
09:00+27ssw117713 0.3 1013433
12:00+31w12610 3.5 1011920
15:00+32nne01521 5.3 10101597
18:00+27s128263 3.6 101024
21:00+25se118759 5.9 101224
12 march, fri
fri1200:00+23e119186 5.8 101224
03:00+23sse119393 6.7 101129
06:00+22sse119245 0.0 101224
09:00+27ssw117622 0.0 1013462
12:00+31wnw12611 1.3 1012942
15:00+31n11561 3.4 10101291
18:00+26ssw228114 1.1 101146
21:00+24s01887 1.1 101224